This is the latest recevied weather packets stored in our database for station/object KA7EII-13. If no packets are shown the sender has not sent any weather packets the latest 10 day(s).
| Time | Temp. | Humidity | Pressure | Rain* | Wind** | Luminosity | Snow |
|---|---|---|---|---|---|---|---|
| 1777757332 | 22.22° C | 22% | 1106.9 hPa | 0 mm | - | 583 W/m² | - |
| 1777757031 | 22.78° C | 26% | 1107 hPa | 0 mm | - | 626 W/m² | - |
| 1777756727 | 22.78° C | 21% | 1107.3 hPa | 0 mm | - | 551 W/m² | - |
| 1777756423 | 23.33° C | 22% | 1107 hPa | 0 mm | - | 563 W/m² | - |
| 1777756121 | 22.78° C | 22% | 1107.1 hPa | 0 mm | - | 664 W/m² | - |
| 1777755818 | 22.78° C | 23% | 1107.1 hPa | 0 mm | - | 681 W/m² | - |
| 1777755515 | 22.78° C | 22% | 1107.4 hPa | 0 mm | - | 704 W/m² | - |
| 1777755210 | 23.33° C | 22% | 1107.4 hPa | 0 mm | - | 750 W/m² | - |
| 1777754908 | 23.33° C | 22% | 1107.6 hPa | 0 mm | - | 737 W/m² | - |
| 1777754605 | 22.78° C | 21% | 1107.5 hPa | 0 mm | - | 730 W/m² | - |
| 1777754302 | 22.78° C | 23% | 1107.5 hPa | 0 mm | - | 708 W/m² | - |
| 1777754000 | 22.22° C | 22% | 1107.7 hPa | 0 mm | - | 724 W/m² | - |
| 1777753695 | 22.78° C | 23% | 1107.7 hPa | 0 mm | - | 729 W/m² | - |
| 1777753393 | 22.78° C | 24% | 1107.8 hPa | 0 mm | - | 680 W/m² | - |
| 1777753091 | 22.78° C | 23% | 1107.6 hPa | 0 mm | - | 754 W/m² | - |
| 1777752787 | 21.67° C | 27% | 1107.7 hPa | 0 mm | - | 727 W/m² | - |
| 1777752483 | 22.22° C | 24% | 1107.8 hPa | 0 mm | - | 718 W/m² | - |
| 1777752179 | 22.78° C | 23% | 1108.1 hPa | 0 mm | - | 794 W/m² | - |
| 1777751878 | 22.22° C | 24% | 1107.8 hPa | 0 mm | - | 729 W/m² | - |
| 1777751574 | 22.22° C | 25% | 1108.1 hPa | 0 mm | - | 784 W/m² | - |
| 1777751270 | 21.67° C | 24% | 1108.2 hPa | 0 mm | - | 744 W/m² | - |
| 1777750968 | 21.67° C | 25% | 1108.2 hPa | 0 mm | - | 656 W/m² | - |
| 1777750663 | 21.67° C | 23% | 1108.3 hPa | 0 mm | - | 664 W/m² | - |
| 1777750360 | 21.67° C | 23% | 1108.1 hPa | 0 mm | - | 691 W/m² | - |
| 1777750055 | 21.67° C | 23% | 1108.2 hPa | 0 mm | - | 789 W/m² | - |
* Rain latest hour (hover to see other rain measurements)
** Current wind speed in m/s (hover to see current wind gust speed)